Regional Weather Roundup
Issued by NWS

Home | Current Version | Previous Version | Graphics & Text | Print | Product List | Glossary On
Versions: 1 2 3 4 5 6 7 8 9 10 11 12 13 14 15 16 17 18 19 20 21 22 23 24 25 26 27 28 29 30 31 32 33 34 35 36 37 38 39 40 41 42 43 44 45 46 47 48 49 50
000
ASUS43 KLSX 210707
RWRMO

WEATHER SUMMARY FOR MISSOURI
NATIONAL WEATHER SERVICE SPRINGFIELD MO
200 AM CDT MON AUG 21 2017

NOTE: "FAIR" INDICATES FEW OR NO CLOUDS BELOW 12,000 FEET WITH NO
       SIGNIFICANT WEATHER AND/OR OBSTRUCTIONS TO VISIBILITY.
       CURRENT SKY AND/OR WEATHER CONDITIONS ARE NOT AVAILABLE FOR
       CHILLICOTHE AND FARMINGTON.

MOZ001>031-035>038-043-044-053-054-210800-
...NORTHERN AND WESTERN MISSOURI...

CITY           SKY/WX    TMP DP  RH WIND       PRES   REMARKS
KANSAS CTY INT PTCLDY    74  67  78 S10       29.99F
KANSAS C DTWN  CLOUDY    80  70  71 SW9       29.98F
LEE`S SUMMIT   CLOUDY    77  68  73 S15       30.00F
ST JOSEPH      CLEAR     77  70  79 S12       29.96F
CHILLICOTHE      N/A     72  69  90 CALM      30.01S
KIRKSVILLE     CLOUDY    68  65  90 S6        30.04R

$$
MOZ066>068-077>081-088>096-101>105-210800-
...SOUTHWEST MISSOURI...

CITY           SKY/WX    TMP DP  RH WIND       PRES   REMARKS
SPRINGFIELD    CLEAR     71  70  96 S12       30.08F
JOPLIN         CLOUDY    77  71  82 SE9       30.06F
BRANSON        CLEAR     73  72  94 S6        30.11F

$$
MOZ032>034-039>042-045>050-055>058-069>072-210800-
...CENTRAL MISSOURI...

CITY           SKY/WX    TMP DP  RH WIND       PRES   REMARKS
COLUMBIA       CLOUDY    72  71  97 CALM      30.04F
JEFFERSON CITY CLOUDY    76  74  93 E5        30.03F
ROLLA          PTCLDY    74  72  93 S7        30.09F
SEDALIA        PTCLDY    70  67  90 S9        30.04F
WHITEMAN AFB   MOCLDY    73  70  91 S10       30.00F
WARRENSBURG    CLOUDY    70  64  83 S5        30.00F
OSAGE BEACH    CLOUDY    71  68  90 SE5       30.06F

$$
MOZ051-052-059>065-210800-
...EAST CENTRAL MISSOURI...

CITY           SKY/WX    TMP DP  RH WIND       PRES   REMARKS
ST LOUIS INTL  CLOUDY    80  74  81 S7        30.07F
SPIRIT OF STL  CLOUDY    74  73  97 CALM      30.05F
ST CHARLES     CLOUDY    73  72  96 CALM      30.04F

$$
MOZ072>076-082>087-097>100-106>115-210800-
...SOUTH CENTRAL AND SOUTHEAST MISSOURI...

CITY           SKY/WX    TMP DP  RH WIND       PRES   REMARKS
CAPE GIRARDEAU PTCLDY    69  68  96 CALM      30.09R
FARMINGTON     CLOUDY    74  72  93 CALM      30.12S
POPLAR BLUFF   CLOUDY    72  72 100 CALM      30.08R
WEST PLAINS    CLEAR     75  71  87 S7        30.12F

$$



USA.gov is the U.S. government's official web portal to all federal, state and local government web resources and services.